When you browse on this site, cookies collect data to enhance your experience and personalize the content and advertising you see.
Visit our Privacy Policy to learn more. By continuing to use the site, you agree to this use of cookies and data.
  • In Portugal
  • List of Countries
  • For 7 days
  • Water Temperature
  • Satellite Maps
  • Weather Map
  • Weather Widgets
  • user-avatar
    Login

    Hourly Weather Bansko

    Today, 27 May, Monday

    Time Temperature Precipitation Wind Pressure Humidity
    00:00 +16°C° 0 mm 1 mps 721 mmHg 85%
    01:00 +16°C° 0 mm 1 mps 720 mmHg 86%
    02:00 +16°C° 0 mm 2 mps 720 mmHg 86%
    03:00 +16°C° 0 mm 2 mps 720 mmHg 85%
    04:00 +16°C° 0 mm 1 mps 720 mmHg 85%
    05:00 +15°C° 0 mm 1 mps 720 mmHg 84%
    06:00 +19°C° 0 mm 1 mps 720 mmHg 76%
    07:00 +21°C° 0 mm 1 mps 720 mmHg 68%
    08:00 +23°C° 0 mm 2 mps 720 mmHg 60%
    09:00 +24°C° 0 mm 2 mps 720 mmHg 56%
    10:00 +26°C° 0 mm 3 mps 721 mmHg 51%
    11:00 +27°C° 0 mm 3 mps 721 mmHg 46%
    12:00 +25°C° 0.1 mm 3 mps 720 mmHg 52%
    13:00 +23°C° 0.1 mm 4 mps 720 mmHg 58%
    14:00 +22°C° 0.1 mm 4 mps 720 mmHg 64%
    15:00 +23°C° 0.1 mm 4 mps 720 mmHg 61%
    16:00 +23°C° 0.1 mm 4 mps 719 mmHg 59%
    17:00 +24°C° 0.1 mm 3 mps 719 mmHg 56%
    18:00 +21°C° 0 mm 3 mps 719 mmHg 63%
    19:00 +20°C° 0 mm 3 mps 718 mmHg 70%
    20:00 +18°C° 0 mm 2 mps 718 mmHg 76%
    21:00 +17°C° 0 mm 2 mps 718 mmHg 78%
    22:00 +16°C° 0 mm 2 mps 718 mmHg 79%
    23:00 +16°C° 0 mm 2 mps 718 mmHg 80%

    Tomorrow, 28 May, Tuesday

    Time Temperature Precipitation Wind Pressure Humidity
    00:00 +15°C° 0 mm 2 mps 718 mmHg 79%
    01:00 +15°C° 0 mm 2 mps 718 mmHg 78%
    02:00 +15°C° 0 mm 2 mps 718 mmHg 76%
    03:00 +15°C° 0 mm 2 mps 717 mmHg 74%
    04:00 +15°C° 0 mm 2 mps 717 mmHg 72%
    05:00 +15°C° 0 mm 2 mps 717 mmHg 70%
    06:00 +17°C° 0 mm 2 mps 717 mmHg 64%
    07:00 +19°C° 0 mm 3 mps 717 mmHg 57%
    08:00 +22°C° 0 mm 3 mps 717 mmHg 51%
    09:00 +24°C° 0 mm 3 mps 717 mmHg 48%
    10:00 +25°C° 0 mm 4 mps 717 mmHg 45%
    11:00 +26°C° 0 mm 5 mps 717 mmHg 43%
    12:00 +27°C° 0 mm 5 mps 716 mmHg 42%
    13:00 +27°C° 0 mm 5 mps 716 mmHg 42%
    14:00 +27°C° 0 mm 5 mps 716 mmHg 42%
    15:00 +27°C° 0 mm 5 mps 716 mmHg 45%
    16:00 +26°C° 0 mm 4 mps 715 mmHg 47%
    17:00 +26°C° 0 mm 4 mps 715 mmHg 50%
    18:00 +24°C° 0.1 mm 3 mps 715 mmHg 60%
    19:00 +20°C° 0.1 mm 2 mps 715 mmHg 69%
    20:00 +18°C° 0.1 mm 2 mps 715 mmHg 79%
    21:00 +17°C° 0 mm 2 mps 715 mmHg 81%
    22:00 +17°C° 0 mm 2 mps 716 mmHg 83%
    23:00 +16°C° 0 mm 2 mps 716 mmHg 85%

    Day after tomorrow, 29 May, Wednesday

    Time Temperature Precipitation Wind Pressure Humidity
    00:00 +16°C° 0 mm 2 mps 716 mmHg 86%
    01:00 +15°C° 0 mm 1 mps 716 mmHg 87%
    02:00 +15°C° 0 mm 1 mps 716 mmHg 88%
    03:00 +15°C° 0 mm 1 mps 716 mmHg 88%
    04:00 +15°C° 0 mm 1 mps 716 mmHg 89%
    05:00 +14°C° 0 mm 1 mps 716 mmHg 89%
    06:00 +16°C° 0 mm 1 mps 717 mmHg 81%
    07:00 +20°C° 0 mm 1 mps 717 mmHg 72%
    08:00 +22°C° 0 mm 1 mps 718 mmHg 63%
    09:00 +23°C° 0 mm 2 mps 718 mmHg 58%
    10:00 +24°C° 0 mm 2 mps 718 mmHg 53%
    11:00 +25°C° 0 mm 3 mps 718 mmHg 47%
    12:00 +26°C° 0.1 mm 3 mps 718 mmHg 47%
    13:00 +26°C° 0.1 mm 3 mps 718 mmHg 46%
    14:00 +27°C° 0.1 mm 3 mps 718 mmHg 45%
    15:00 +27°C° 0.1 mm 3 mps 718 mmHg 47%
    16:00 +26°C° 0.1 mm 3 mps 717 mmHg 49%
    17:00 +26°C° 0.1 mm 3 mps 717 mmHg 51%
    18:00 +24°C° 0.1 mm 3 mps 717 mmHg 59%
    19:00 +21°C° 0.1 mm 2 mps 718 mmHg 66%
    20:00 +19°C° 0.1 mm 2 mps 718 mmHg 73%
    21:00 +19°C° 0 mm 1 mps 718 mmHg 76%
    22:00 +18°C° 0 mm 1 mps 718 mmHg 79%
    23:00 +16°C° 0 mm 1 mps 719 mmHg 81%

    30 May, Thursday

    Time Temperature Precipitation Wind Pressure Humidity
    00:00 +16°C° 0 mm 1 mps 719 mmHg 83%
    01:00 +16°C° 0 mm 1 mps 719 mmHg 84%
    02:00 +14°C° 0 mm 0 mps 719 mmHg 85%
    03:00 +14°C° 0 mm 0 mps 719 mmHg 86%
    04:00 +14°C° 0 mm 0 mps 719 mmHg 87%
    05:00 +13°C° 0 mm 0 mps 719 mmHg 88%
    06:00 +18°C° 0 mm 1 mps 719 mmHg 80%
    07:00 +20°C° 0 mm 1 mps 719 mmHg 73%
    08:00 +22°C° 0 mm 1 mps 720 mmHg 66%
    09:00 +23°C° 0.1 mm 1 mps 720 mmHg 60%
    10:00 +24°C° 0.1 mm 1 mps 720 mmHg 54%
    11:00 +25°C° 0.1 mm 1 mps 720 mmHg 48%
    12:00 +26°C° 0 mm 2 mps 720 mmHg 45%
    13:00 +26°C° 0 mm 2 mps 720 mmHg 43%
    14:00 +27°C° 0 mm 2 mps 719 mmHg 41%
    15:00 +26°C° 0 mm 2 mps 719 mmHg 43%
    16:00 +26°C° 0 mm 2 mps 719 mmHg 45%
    17:00 +25°C° 0 mm 2 mps 719 mmHg 47%
    18:00 +23°C° 0.1 mm 2 mps 719 mmHg 56%
    19:00 +20°C° 0.1 mm 2 mps 719 mmHg 64%
    20:00 +19°C° 0.1 mm 1 mps 719 mmHg 73%
    21:00 +18°C° 0.1 mm 1 mps 719 mmHg 77%
    22:00 +16°C° 0.1 mm 1 mps 719 mmHg 82%
    23:00 +15°C° 0.1 mm 1 mps 720 mmHg 87%

    31 May, Friday

    Time Temperature Precipitation Wind Pressure Humidity
    00:00 +15°C° 0 mm 1 mps 719 mmHg 88%
    01:00 +14°C° 0 mm 2 mps 719 mmHg 90%
    02:00 +14°C° 0 mm 2 mps 719 mmHg 91%
    03:00 +14°C° 0 mm 2 mps 719 mmHg 92%
    04:00 +13°C° 0 mm 2 mps 719 mmHg 93%
    05:00 +13°C° 0 mm 2 mps 719 mmHg 95%
    06:00 +15°C° 0 mm 2 mps 719 mmHg 87%
    07:00 +16°C° 0 mm 3 mps 720 mmHg 80%
    08:00 +18°C° 0 mm 3 mps 720 mmHg 73%
    09:00 +19°C° 0.2 mm 3 mps 720 mmHg 69%
    10:00 +20°C° 0.2 mm 3 mps 720 mmHg 66%
    11:00 +21°C° 0.2 mm 3 mps 720 mmHg 62%
    12:00 +21°C° 0.7 mm 3 mps 720 mmHg 62%
    13:00 +21°C° 0.7 mm 3 mps 719 mmHg 62%
    14:00 +21°C° 0.7 mm 3 mps 719 mmHg 62%
    15:00 +20°C° 1.3 mm 3 mps 719 mmHg 66%
    16:00 +20°C° 1.3 mm 3 mps 719 mmHg 70%
    17:00 +19°C° 1.3 mm 3 mps 718 mmHg 74%
    18:00 +18°C° 0.6 mm 3 mps 719 mmHg 78%
    19:00 +16°C° 0.6 mm 3 mps 719 mmHg 83%
    20:00 +15°C° 0.6 mm 2 mps 719 mmHg 88%
    21:00 +15°C° 0.1 mm 2 mps 719 mmHg 90%
    22:00 +14°C° 0.1 mm 2 mps 719 mmHg 91%
    23:00 +14°C° 0.1 mm 2 mps 719 mmHg 93%

    1 June, Saturday

    Time Temperature Precipitation Wind Pressure Humidity
    00:00 +13°C° 0 mm 1 mps 718 mmHg 93%
    01:00 +13°C° 0 mm 1 mps 718 mmHg 93%
    02:00 +13°C° 0 mm 1 mps 718 mmHg 94%
    03:00 +13°C° 0 mm 1 mps 718 mmHg 93%
    04:00 +12°C° 0 mm 1 mps 718 mmHg 93%
    05:00 +12°C° 0 mm 1 mps 718 mmHg 93%
    06:00 +14°C° 0 mm 1 mps 718 mmHg 85%
    07:00 +16°C° 0 mm 1 mps 718 mmHg 77%
    08:00 +19°C° 0 mm 1 mps 718 mmHg 70%
    09:00 +20°C° 0.1 mm 1 mps 718 mmHg 64%
    10:00 +22°C° 0.1 mm 1 mps 718 mmHg 59%
    11:00 +23°C° 0.1 mm 1 mps 718 mmHg 54%
    12:00 +24°C° 0.4 mm 1 mps 718 mmHg 53%
    13:00 +24°C° 0.4 mm 1 mps 718 mmHg 51%
    14:00 +25°C° 0.4 mm 1 mps 718 mmHg 50%
    15:00 +24°C° 0.8 mm 1 mps 717 mmHg 53%
    16:00 +24°C° 0.8 mm 1 mps 717 mmHg 55%
    17:00 +23°C° 0.8 mm 1 mps 717 mmHg 57%
    18:00 +21°C° 0.7 mm 1 mps 717 mmHg 64%
    19:00 +20°C° 0.7 mm 1 mps 717 mmHg 71%
    20:00 +18°C° 0.7 mm 1 mps 717 mmHg 77%
    21:00 +16°C° 0.3 mm 1 mps 717 mmHg 80%
    22:00 +16°C° 0.3 mm 1 mps 717 mmHg 83%
    23:00 +15°C° 0.3 mm 1 mps 718 mmHg 85%
    Show more